GFSFLT1_prec_precacc24_246.txt.gz
Total_Precipitation_Accumulation
0.00 0.00 0.00 0.00 0.00 0.00 0.02 0.05 0.05 0.07 0.12 0.09 0.07 0.02 0.00 0.00 0.00 0.01 0.00 0.00 0.00 0.01 0.01 0.01 0.00 0.00 0.01 0.02 0.02 0.02 0.02 0.03
0.00 0.00 0.00 0.00 0.00 0.00 0.01 0.04 0.05 0.05 0.04 0.02 0.03 0.07 0.02 0.00 0.00 0.01 0.00 0.00 0.00 0.01 0.03 0.04 0.03 0.05 0.09 0.06 0.05 0.11 0.20 0.16
0.00 0.00 0.00 0.00 0.00 0.00 0.01 0.02 0.03 0.06 0.04 0.04 0.05 0.06 0.01 0.00 0.00 0.02 0.03 0.03 0.04 0.06 0.09 0.16 0.21 0.16 0.22 0.31 0.26 0.23 0.21 0.30
0.00 0.00 0.00 0.00 0.00 0.00 0.00 0.02 0.05 0.07 0.06 0.04 0.03 0.02 0.01 0.00 0.01 0.01 0.02 0.05 0.07 0.08 0.10 0.05 0.06 0.08 0.12 0.18 0.22 0.23 0.28 0.18
0.00 0.00 0.00 0.00 0.00 0.00 0.00 0.00 0.01 0.02 0.04 0.02 0.02 0.01 0.02 0.02 0.05 0.06 0.05 0.02 0.02 0.02 0.02 0.02 0.04 0.06 0.08 0.08 0.09 0.15 0.14 0.07
0.00 0.00 0.00 0.00 0.00 0.00 0.00 0.01 0.01 0.02 0.01 0.01 0.03 0.03 0.01 0.02 0.01 0.02 0.02 0.02 0.02 0.01 0.01 0.02 0.03 0.05 0.06 0.07 0.04 0.08 0.09 0.04
0.00 0.00 0.00 0.00 0.00 0.00 0.00 0.00 0.00 0.00 0.00 0.02 0.02 0.04 0.02 0.02 0.02 0.04 0.09 0.03 0.07 0.14 0.04 0.01 0.02 0.03 0.02 0.02 0.05 0.05 0.01 0.01
0.00 0.00 0.00 0.00 0.00 0.00 0.00 0.00 0.00 0.00 0.01 0.02 0.04 0.04 0.04 0.03 0.03 0.10 0.12 0.11 0.17 0.11 0.02 0.01 0.02 0.00 0.00 0.01 0.04 0.03 0.02 0.02
0.00 0.00 0.00 0.00 0.00 0.00 0.00 0.00 0.00 0.00 0.01 0.01 0.05 0.07 0.04 0.03 0.12 0.20 0.17 0.14 0.12 0.04 0.02 0.01 0.00 0.02 0.10 0.08 0.05 0.06 0.08 0.06
0.00 0.00 0.00 0.00 0.00 0.00 0.00 0.00 0.00 0.02 0.02 0.03 0.05 0.05 0.03 0.07 0.18 0.13 0.10 0.07 0.05 0.06 0.04 0.02 0.04 0.06 0.06 0.02 0.06 0.10 0.04 0.06
0.00 0.00 0.00 0.00 0.00 0.00 0.00 0.00 0.00 0.00 0.02 0.02 0.04 0.07 0.05 0.12 0.11 0.09 0.08 0.05 0.05 0.03 0.02 0.02 0.02 0.01 0.01 0.02 0.06 0.07 0.08 0.10
0.00 0.00 0.00 0.00 0.00 0.00 0.00 0.00 0.00 0.00 0.00 0.00 0.01 0.07 0.06 0.16 0.18 0.13 0.08 0.08 0.06 0.04 0.02 0.01 0.01 0.01 0.01 0.02 0.03 0.09 0.15 0.11
0.00 0.00 0.00 0.00 0.00 0.00 0.00 0.00 0.00 0.00 0.00 0.01 0.03 0.13 0.16 0.16 0.16 0.13 0.15 0.16 0.14 0.12 0.06 0.06 0.07 0.05 0.10 0.10 0.10 0.14 0.12 0.09
0.00 0.00 0.00 0.00 0.00 0.00 0.00 0.00 0.00 0.00 0.00 0.05 0.13 0.20 0.15 0.09 0.10 0.12 0.23 0.18 0.16 0.13 0.05 0.06 0.12 0.14 0.16 0.15 0.16 0.17 0.16 0.10
0.00 0.00 0.00 0.00 0.00 0.00 0.00 0.00 0.00 0.00 0.01 0.02 0.04 0.04 0.06 0.08 0.09 0.21 0.27 0.28 0.20 0.22 0.27 0.23 0.21 0.20 0.22 0.19 0.17 0.15 0.11 0.06
0.00 0.00 0.00 0.00 0.00 0.00 0.00 0.00 0.00 0.00 0.00 0.01 0.04 0.08 0.12 0.11 0.13 0.23 0.26 0.24 0.24 0.24 0.22 0.19 0.14 0.15 0.17 0.21 0.17 0.14 0.08 0.03
0.00 0.00 0.00 0.00 0.00 0.00 0.00 0.00 0.01 0.01 0.01 0.01 0.01 0.06 0.14 0.19 0.15 0.20 0.17 0.20 0.20 0.26 0.21 0.25 0.24 0.18 0.14 0.11 0.09 0.08 0.06 0.01
0.00 0.00 0.00 0.00 0.00 0.00 0.00 0.00 0.01 0.01 0.01 0.01 0.02 0.06 0.10 0.14 0.14 0.18 0.15 0.15 0.16 0.19 0.24 0.21 0.23 0.13 0.10 0.08 0.07 0.04 0.01 0.01
0.00 0.00 0.00 0.00 0.00 0.00 0.00 0.00 0.00 0.00 0.01 0.01 0.04 0.08 0.07 0.06 0.04 0.06 0.10 0.11 0.11 0.10 0.13 0.16 0.16 0.12 0.09 0.05 0.05 0.04 0.01 0.00

GFSFLT1_prec_precacc24_249.txt.gz
Total_Precipitation_Accumulation
0.00 0.00 0.00 0.00 0.00 0.00 0.00 0.01 0.02 0.02 0.03 0.03 0.04 0.01 0.00 0.00 0.00 0.01 0.00 0.00 0.00 0.00 0.00 0.00 0.00 0.00 0.01 0.02 0.02 0.02 0.02 0.03
0.00 0.00 0.00 0.00 0.00 0.00 0.00 0.01 0.02 0.01 0.01 0.01 0.03 0.05 0.02 0.00 0.00 0.01 0.00 0.00 0.00 0.00 0.01 0.02 0.02 0.04 0.08 0.04 0.04 0.11 0.20 0.16
0.00 0.00 0.00 0.00 0.00 0.00 0.00 0.00 0.01 0.01 0.02 0.02 0.02 0.05 0.01 0.00 0.00 0.01 0.03 0.02 0.01 0.02 0.05 0.12 0.12 0.09 0.13 0.14 0.15 0.15 0.16 0.23
0.00 0.00 0.00 0.00 0.00 0.00 0.00 0.00 0.02 0.03 0.05 0.03 0.02 0.01 0.00 0.00 0.01 0.01 0.02 0.04 0.05 0.04 0.05 0.03 0.04 0.07 0.10 0.10 0.08 0.13 0.20 0.10
0.00 0.00 0.00 0.00 0.00 0.00 0.00 0.00 0.01 0.01 0.03 0.02 0.01 0.01 0.02 0.02 0.05 0.06 0.05 0.02 0.02 0.02 0.02 0.02 0.04 0.06 0.08 0.08 0.09 0.14 0.14 0.06
0.00 0.00 0.00 0.00 0.00 0.00 0.00 0.00 0.00 0.02 0.01 0.01 0.03 0.03 0.01 0.02 0.01 0.02 0.02 0.02 0.02 0.01 0.01 0.02 0.03 0.05 0.06 0.07 0.04 0.08 0.09 0.04
0.00 0.00 0.00 0.00 0.00 0.00 0.00 0.00 0.00 0.00 0.00 0.01 0.02 0.04 0.02 0.02 0.02 0.04 0.09 0.03 0.07 0.14 0.04 0.01 0.02 0.03 0.02 0.02 0.05 0.05 0.01 0.01
0.00 0.00 0.00 0.00 0.00 0.00 0.00 0.00 0.00 0.00 0.01 0.02 0.04 0.04 0.04 0.03 0.03 0.10 0.12 0.11 0.17 0.11 0.02 0.01 0.02 0.00 0.00 0.01 0.04 0.03 0.02 0.02
0.00 0.00 0.00 0.00 0.00 0.00 0.00 0.00 0.00 0.00 0.01 0.01 0.05 0.07 0.04 0.03 0.12 0.20 0.17 0.14 0.12 0.04 0.02 0.01 0.00 0.02 0.10 0.08 0.05 0.06 0.08 0.06
0.00 0.00 0.00 0.00 0.00 0.00 0.00 0.00 0.00 0.02 0.02 0.03 0.05 0.05 0.03 0.07 0.18 0.13 0.10 0.07 0.05 0.06 0.04 0.02 0.04 0.06 0.06 0.02 0.06 0.10 0.04 0.06
0.00 0.00 0.00 0.00 0.00 0.00 0.00 0.00 0.00 0.00 0.02 0.02 0.04 0.07 0.05 0.12 0.11 0.09 0.08 0.05 0.05 0.03 0.02 0.02 0.02 0.01 0.01 0.02 0.06 0.07 0.09 0.18
0.00 0.00 0.00 0.00 0.00 0.00 0.00 0.00 0.00 0.00 0.00 0.00 0.01 0.07 0.06 0.16 0.18 0.13 0.08 0.08 0.06 0.04 0.02 0.01 0.01 0.01 0.01 0.02 0.03 0.09 0.21 0.24
0.00 0.00 0.00 0.00 0.00 0.00 0.00 0.00 0.00 0.00 0.00 0.01 0.03 0.13 0.16 0.16 0.16 0.13 0.15 0.16 0.14 0.12 0.06 0.06 0.08 0.05 0.10 0.10 0.10 0.15 0.18 0.24
0.00 0.00 0.00 0.00 0.00 0.00 0.00 0.00 0.00 0.00 0.00 0.05 0.13 0.20 0.15 0.09 0.10 0.12 0.23 0.18 0.16 0.13 0.05 0.07 0.13 0.17 0.18 0.15 0.16 0.18 0.20 0.19
0.00 0.00 0.00 0.00 0.00 0.00 0.00 0.00 0.00 0.00 0.01 0.02 0.04 0.04 0.06 0.08 0.09 0.21 0.27 0.28 0.21 0.23 0.31 0.29 0.26 0.28 0.31 0.22 0.20 0.22 0.20 0.23
0.00 0.00 0.00 0.00 0.00 0.00 0.00 0.00 0.00 0.00 0.00 0.01 0.04 0.08 0.12 0.11 0.13 0.23 0.26 0.25 0.29 0.30 0.30 0.26 0.21 0.22 0.22 0.27 0.28 0.30 0.30 0.26
0.00 0.00 0.00 0.00 0.00 0.00 0.00 0.00 0.01 0.01 0.01 0.01 0.01 0.06 0.14 0.19 0.16 0.22 0.21 0.24 0.25 0.31 0.28 0.34 0.32 0.23 0.20 0.22 0.23 0.32 0.41 0.42
0.00 0.00 0.00 0.00 0.00 0.00 0.00 0.00 0.01 0.01 0.01 0.01 0.02 0.06 0.12 0.16 0.17 0.20 0.18 0.19 0.20 0.22 0.29 0.27 0.31 0.21 0.17 0.16 0.16 0.15 0.17 0.35
0.00 0.00 0.00 0.00 0.00 0.00 0.00 0.00 0.00 0.00 0.01 0.01 0.04 0.10 0.10 0.07 0.06 0.09 0.12 0.14 0.15 0.15 0.18 0.24 0.27 0.24 0.20 0.16 0.14 0.13 0.10 0.08

GFSFLT1_prec_precacc24_252.txt.gz
Total_Precipitation_Accumulation
0.00 0.00 0.00 0.00 0.00 0.00 0.00 0.00 0.00 0.00 0.00 0.00 0.01 0.00 0.00 0.00 0.00 0.00 0.00 0.00 0.00 0.00 0.00 0.00 0.00 0.00 0.00 0.01 0.02 0.02 0.02 0.03
0.00 0.00 0.00 0.00 0.00 0.00 0.00 0.00 0.00 0.00 0.00 0.00 0.00 0.00 0.00 0.00 0.00 0.00 0.00 0.00 0.00 0.00 0.00 0.00 0.00 0.00 0.01 0.02 0.04 0.10 0.19 0.16
0.00 0.00 0.00 0.00 0.00 0.00 0.00 0.00 0.00 0.00 0.01 0.00 0.00 0.00 0.00 0.00 0.00 0.00 0.00 0.00 0.00 0.00 0.00 0.00 0.01 0.04 0.09 0.12 0.12 0.15 0.15 0.22
0.00 0.00 0.00 0.00 0.00 0.00 0.00 0.00 0.00 0.00 0.03 0.02 0.01 0.00 0.00 0.00 0.00 0.00 0.00 0.00 0.01 0.01 0.00 0.00 0.02 0.05 0.08 0.08 0.07 0.13 0.20 0.10
0.00 0.00 0.00 0.00 0.00 0.00 0.00 0.00 0.00 0.00 0.01 0.01 0.01 0.01 0.02 0.02 0.05 0.06 0.05 0.02 0.02 0.02 0.01 0.01 0.03 0.06 0.08 0.08 0.09 0.14 0.14 0.06
0.00 0.00 0.00 0.00 0.00 0.00 0.00 0.00 0.00 0.00 0.00 0.00 0.01 0.03 0.01 0.02 0.01 0.02 0.02 0.02 0.02 0.01 0.01 0.02 0.03 0.05 0.06 0.07 0.04 0.08 0.09 0.04
0.00 0.00 0.00 0.00 0.00 0.00 0.00 0.00 0.00 0.00 0.00 0.01 0.01 0.03 0.01 0.02 0.02 0.04 0.09 0.03 0.07 0.14 0.04 0.01 0.02 0.03 0.02 0.02 0.05 0.05 0.01 0.00
0.00 0.00 0.00 0.00 0.00 0.00 0.00 0.00 0.00 0.00 0.01 0.02 0.03 0.04 0.04 0.02 0.03 0.10 0.12 0.11 0.17 0.11 0.02 0.01 0.02 0.00 0.00 0.01 0.04 0.03 0.02 0.02
0.00 0.00 0.00 0.00 0.00 0.00 0.00 0.00 0.00 0.00 0.01 0.01 0.04 0.06 0.04 0.03 0.12 0.20 0.17 0.14 0.12 0.04 0.02 0.01 0.00 0.02 0.10 0.08 0.05 0.06 0.08 0.06
0.00 0.00 0.00 0.00 0.00 0.00 0.00 0.00 0.00 0.01 0.02 0.03 0.05 0.05 0.03 0.07 0.18 0.13 0.10 0.07 0.05 0.06 0.04 0.02 0.04 0.06 0.06 0.02 0.06 0.10 0.04 0.06
0.00 0.00 0.00 0.00 0.00 0.00 0.00 0.00 0.00 0.00 0.02 0.02 0.04 0.07 0.05 0.12 0.11 0.09 0.08 0.05 0.05 0.03 0.02 0.02 0.02 0.01 0.01 0.02 0.06 0.07 0.09 0.18
0.00 0.00 0.00 0.00 0.00 0.00 0.00 0.00 0.00 0.00 0.00 0.00 0.01 0.07 0.06 0.16 0.18 0.13 0.08 0.08 0.06 0.04 0.02 0.01 0.01 0.01 0.01 0.02 0.03 0.09 0.21 0.24
0.00 0.00 0.00 0.00 0.00 0.00 0.00 0.00 0.00 0.00 0.00 0.01 0.03 0.13 0.16 0.16 0.16 0.13 0.15 0.16 0.14 0.12 0.06 0.06 0.08 0.05 0.10 0.10 0.10 0.15 0.18 0.24
0.00 0.00 0.00 0.00 0.00 0.00 0.00 0.00 0.00 0.00 0.00 0.05 0.13 0.20 0.15 0.09 0.10 0.12 0.23 0.18 0.16 0.13 0.05 0.07 0.13 0.17 0.18 0.15 0.16 0.18 0.20 0.19
0.00 0.00 0.00 0.00 0.00 0.00 0.00 0.00 0.00 0.00 0.01 0.02 0.04 0.04 0.06 0.08 0.09 0.21 0.27 0.28 0.21 0.23 0.31 0.29 0.26 0.28 0.31 0.22 0.21 0.27 0.27 0.29
0.00 0.00 0.00 0.00 0.00 0.00 0.00 0.00 0.00 0.00 0.00 0.01 0.04 0.08 0.12 0.11 0.13 0.23 0.26 0.25 0.29 0.30 0.30 0.26 0.22 0.22 0.23 0.29 0.30 0.35 0.39 0.37
0.00 0.00 0.00 0.00 0.00 0.00 0.00 0.00 0.01 0.01 0.01 0.01 0.01 0.06 0.14 0.19 0.16 0.22 0.21 0.24 0.25 0.32 0.31 0.38 0.33 0.25 0.22 0.29 0.28 0.36 0.47 0.50
0.00 0.00 0.00 0.00 0.00 0.00 0.00 0.01 0.01 0.01 0.01 0.01 0.02 0.06 0.12 0.16 0.17 0.20 0.18 0.19 0.20 0.23 0.32 0.31 0.34 0.24 0.20 0.20 0.18 0.18 0.22 0.44
0.00 0.00 0.00 0.00 0.00 0.00 0.01 0.02 0.01 0.00 0.01 0.01 0.04 0.10 0.10 0.07 0.06 0.09 0.12 0.14 0.15 0.16 0.21 0.25 0.30 0.26 0.23 0.19 0.17 0.18 0.16 0.16

GFSFLT1_prec_precacc24_255.txt.gz
Total_Precipitation_Accumulation
0.00 0.00 0.00 0.00 0.00 0.00 0.00 0.00 0.00 0.00 0.00 0.00 0.00 0.00 0.00 0.00 0.00 0.00 0.00 0.00 0.00 0.00 0.00 0.00 0.00 0.00 0.00 0.00 0.01 0.02 0.01 0.02
0.00 0.00 0.00 0.00 0.00 0.00 0.00 0.00 0.00 0.00 0.00 0.00 0.00 0.00 0.00 0.00 0.00 0.00 0.00 0.00 0.00 0.00 0.00 0.00 0.00 0.00 0.00 0.01 0.03 0.10 0.19 0.16
0.00 0.00 0.00 0.00 0.00 0.00 0.00 0.00 0.00 0.00 0.00 0.00 0.00 0.00 0.00 0.00 0.00 0.00 0.00 0.00 0.00 0.00 0.00 0.00 0.01 0.03 0.08 0.11 0.12 0.15 0.15 0.22
0.00 0.00 0.00 0.00 0.00 0.00 0.00 0.00 0.00 0.00 0.00 0.01 0.01 0.00 0.00 0.00 0.00 0.00 0.00 0.00 0.00 0.00 0.00 0.00 0.02 0.05 0.08 0.08 0.07 0.13 0.20 0.10
0.00 0.00 0.00 0.00 0.00 0.00 0.00 0.00 0.00 0.00 0.00 0.00 0.00 0.00 0.01 0.01 0.00 0.01 0.02 0.01 0.00 0.01 0.01 0.00 0.03 0.05 0.07 0.08 0.09 0.14 0.14 0.06
0.00 0.00 0.00 0.00 0.00 0.00 0.00 0.00 0.00 0.00 0.00 0.00 0.01 0.03 0.00 0.01 0.01 0.01 0.02 0.01 0.02 0.01 0.01 0.01 0.03 0.05 0.06 0.07 0.04 0.08 0.09 0.04
0.00 0.00 0.00 0.00 0.00 0.00 0.00 0.00 0.00 0.00 0.00 0.00 0.00 0.02 0.00 0.01 0.01 0.03 0.08 0.03 0.07 0.14 0.04 0.01 0.02 0.03 0.02 0.02 0.05 0.05 0.01 0.00
0.00 0.00 0.00 0.00 0.00 0.00 0.00 0.00 0.00 0.00 0.00 0.00 0.00 0.02 0.02 0.02 0.03 0.09 0.10 0.10 0.16 0.11 0.02 0.01 0.02 0.00 0.00 0.01 0.04 0.03 0.02 0.02
0.00 0.00 0.00 0.00 0.00 0.00 0.00 0.00 0.00 0.00 0.00 0.00 0.01 0.03 0.02 0.02 0.11 0.19 0.16 0.14 0.12 0.04 0.02 0.01 0.00 0.02 0.10 0.08 0.05 0.06 0.08 0.06
0.00 0.00 0.00 0.00 0.00 0.00 0.00 0.00 0.00 0.00 0.00 0.00 0.01 0.01 0.01 0.04 0.16 0.13 0.09 0.07 0.05 0.06 0.04 0.02 0.04 0.06 0.06 0.02 0.06 0.10 0.04 0.06
0.00 0.00 0.00 0.00 0.00 0.00 0.00 0.00 0.00 0.00 0.00 0.00 0.01 0.03 0.04 0.11 0.11 0.09 0.08 0.05 0.05 0.03 0.02 0.02 0.02 0.01 0.01 0.02 0.06 0.07 0.09 0.18
0.00 0.00 0.00 0.00 0.00 0.00 0.00 0.00 0.00 0.00 0.00 0.00 0.01 0.07 0.05 0.16 0.18 0.13 0.08 0.08 0.06 0.04 0.02 0.01 0.01 0.01 0.01 0.02 0.03 0.09 0.21 0.24
0.00 0.00 0.00 0.00 0.00 0.00 0.00 0.00 0.00 0.00 0.00 0.01 0.03 0.13 0.16 0.16 0.16 0.13 0.15 0.16 0.14 0.12 0.06 0.06 0.08 0.05 0.10 0.10 0.10 0.15 0.18 0.24
0.00 0.00 0.00 0.00 0.00 0.00 0.00 0.00 0.00 0.00 0.00 0.05 0.13 0.20 0.15 0.09 0.10 0.12 0.23 0.18 0.16 0.13 0.05 0.07 0.13 0.17 0.18 0.15 0.16 0.18 0.20 0.19
0.00 0.00 0.00 0.00 0.00 0.00 0.00 0.00 0.00 0.00 0.01 0.02 0.04 0.04 0.06 0.08 0.09 0.21 0.27 0.28 0.21 0.23 0.31 0.29 0.26 0.28 0.31 0.22 0.21 0.27 0.27 0.29
0.00 0.00 0.00 0.00 0.00 0.00 0.00 0.00 0.00 0.00 0.00 0.01 0.04 0.08 0.12 0.11 0.13 0.23 0.26 0.25 0.29 0.30 0.30 0.26 0.22 0.22 0.23 0.30 0.37 0.37 0.40 0.37
0.00 0.00 0.00 0.00 0.00 0.00 0.00 0.00 0.01 0.01 0.01 0.01 0.01 0.06 0.14 0.19 0.16 0.22 0.21 0.24 0.25 0.32 0.31 0.38 0.33 0.25 0.23 0.39 0.40 0.43 0.49 0.51
0.00 0.00 0.00 0.00 0.00 0.00 0.00 0.01 0.01 0.01 0.01 0.01 0.02 0.06 0.12 0.16 0.17 0.20 0.18 0.19 0.20 0.23 0.32 0.31 0.34 0.24 0.24 0.32 0.32 0.26 0.26 0.45
0.02 0.00 0.00 0.00 0.00 0.00 0.01 0.02 0.01 0.00 0.01 0.01 0.04 0.10 0.10 0.07 0.06 0.09 0.12 0.14 0.15 0.16 0.21 0.25 0.30 0.26 0.24 0.24 0.27 0.24 0.17 0.16

GFSFLT1_prec_precacc24_258.txt.gz
Total_Precipitation_Accumulation
0.00 0.00 0.00 0.00 0.00 0.00 0.00 0.00 0.00 0.00 0.00 0.00 0.00 0.00 0.00 0.00 0.00 0.00 0.00 0.00 0.00 0.00 0.00 0.00 0.00 0.00 0.00 0.00 0.00 0.01 0.01 0.02
0.00 0.00 0.00 0.00 0.00 0.00 0.00 0.00 0.00 0.00 0.00 0.00 0.00 0.00 0.00 0.00 0.00 0.00 0.00 0.00 0.00 0.00 0.00 0.00 0.00 0.00 0.00 0.01 0.03 0.08 0.13 0.13
0.00 0.00 0.00 0.00 0.00 0.00 0.00 0.00 0.00 0.00 0.00 0.00 0.00 0.00 0.00 0.00 0.00 0.00 0.00 0.00 0.00 0.00 0.00 0.00 0.01 0.02 0.07 0.10 0.12 0.14 0.14 0.22
0.00 0.00 0.00 0.00 0.00 0.00 0.00 0.00 0.00 0.00 0.00 0.00 0.00 0.00 0.00 0.00 0.00 0.00 0.00 0.00 0.00 0.00 0.00 0.00 0.02 0.05 0.08 0.08 0.07 0.13 0.20 0.10
0.00 0.00 0.00 0.00 0.00 0.00 0.00 0.00 0.00 0.00 0.00 0.00 0.00 0.00 0.00 0.00 0.00 0.00 0.00 0.00 0.00 0.00 0.00 0.00 0.03 0.04 0.07 0.07 0.08 0.13 0.13 0.05
0.00 0.00 0.00 0.00 0.00 0.00 0.00 0.00 0.00 0.00 0.00 0.00 0.00 0.00 0.00 0.00 0.00 0.00 0.00 0.00 0.00 0.00 0.00 0.01 0.03 0.03 0.04 0.05 0.04 0.08 0.09 0.04
0.00 0.00 0.00 0.00 0.00 0.00 0.00 0.00 0.00 0.00 0.00 0.00 0.00 0.00 0.00 0.00 0.00 0.01 0.00 0.00 0.01 0.09 0.04 0.01 0.02 0.03 0.02 0.02 0.05 0.05 0.01 0.00
0.00 0.00 0.00 0.00 0.00 0.00 0.00 0.00 0.00 0.00 0.00 0.00 0.00 0.00 0.00 0.00 0.00 0.01 0.00 0.03 0.11 0.09 0.02 0.01 0.02 0.00 0.00 0.01 0.04 0.03 0.02 0.02
0.00 0.00 0.00 0.00 0.00 0.00 0.00 0.00 0.00 0.00 0.00 0.00 0.00 0.00 0.00 0.00 0.01 0.02 0.05 0.07 0.08 0.03 0.02 0.01 0.00 0.02 0.10 0.08 0.05 0.06 0.08 0.06
0.00 0.00 0.00 0.00 0.00 0.00 0.00 0.00 0.00 0.00 0.00 0.00 0.00 0.00 0.00 0.01 0.04 0.04 0.05 0.03 0.04 0.06 0.04 0.02 0.04 0.06 0.06 0.02 0.06 0.10 0.04 0.06
0.00 0.00 0.00 0.00 0.00 0.00 0.00 0.00 0.00 0.00 0.00 0.00 0.00 0.00 0.02 0.08 0.05 0.03 0.04 0.04 0.04 0.03 0.02 0.02 0.02 0.01 0.01 0.02 0.06 0.07 0.09 0.18
0.00 0.00 0.00 0.00 0.00 0.00 0.00 0.00 0.00 0.00 0.00 0.00 0.00 0.05 0.04 0.13 0.13 0.10 0.07 0.08 0.06 0.04 0.02 0.01 0.01 0.01 0.01 0.02 0.03 0.09 0.21 0.24
0.00 0.00 0.00 0.00 0.00 0.00 0.00 0.00 0.00 0.00 0.00 0.00 0.03 0.11 0.15 0.15 0.14 0.11 0.14 0.16 0.14 0.12 0.06 0.06 0.08 0.05 0.10 0.10 0.10 0.15 0.18 0.24
0.00 0.00 0.00 0.00 0.00 0.00 0.00 0.00 0.00 0.00 0.00 0.05 0.13 0.20 0.15 0.08 0.09 0.12 0.23 0.18 0.16 0.13 0.05 0.07 0.13 0.17 0.18 0.15 0.16 0.18 0.20 0.19
0.00 0.00 0.00 0.00 0.00 0.00 0.00 0.00 0.00 0.00 0.01 0.02 0.04 0.03 0.05 0.07 0.08 0.21 0.27 0.28 0.21 0.23 0.31 0.29 0.26 0.28 0.31 0.22 0.22 0.31 0.27 0.29
0.00 0.00 0.00 0.00 0.00 0.00 0.00 0.00 0.00 0.00 0.00 0.01 0.04 0.07 0.11 0.10 0.13 0.23 0.26 0.25 0.29 0.30 0.30 0.26 0.23 0.22 0.23 0.30 0.40 0.41 0.42 0.41
0.01 0.00 0.00 0.00 0.00 0.00 0.00 0.00 0.01 0.01 0.01 0.01 0.01 0.06 0.14 0.19 0.16 0.22 0.21 0.24 0.25 0.32 0.31 0.38 0.34 0.25 0.23 0.39 0.43 0.45 0.55 0.54
0.12 0.03 0.00 0.00 0.00 0.00 0.00 0.01 0.01 0.01 0.01 0.01 0.02 0.06 0.12 0.16 0.17 0.20 0.18 0.19 0.20 0.23 0.32 0.31 0.34 0.24 0.24 0.32 0.33 0.28 0.27 0.46
0.40 0.15 0.04 0.00 0.00 0.00 0.01 0.02 0.01 0.00 0.01 0.01 0.04 0.10 0.10 0.07 0.06 0.09 0.12 0.14 0.16 0.16 0.21 0.25 0.30 0.26 0.25 0.24 0.27 0.26 0.17 0.16

GFSFLT1_prec_precacc24_264.txt.gz
Total_Precipitation_Accumulation
0.00 0.00 0.00 0.00 0.00 0.00 0.00 0.00 0.00 0.00 0.00 0.00 0.00 0.00 0.00 0.00 0.00 0.00 0.00 0.00 0.00 0.00 0.00 0.00 0.00 0.00 0.00 0.00 0.00 0.00 0.00 0.00
0.00 0.00 0.00 0.00 0.00 0.00 0.00 0.00 0.00 0.00 0.00 0.00 0.00 0.00 0.00 0.00 0.00 0.00 0.00 0.00 0.00 0.00 0.00 0.00 0.00 0.00 0.00 0.00 0.00 0.00 0.00 0.00
0.00 0.00 0.00 0.00 0.00 0.00 0.00 0.00 0.00 0.00 0.00 0.00 0.00 0.00 0.00 0.00 0.00 0.00 0.00 0.00 0.00 0.00 0.00 0.00 0.00 0.00 0.00 0.00 0.00 0.00 0.00 0.05
0.00 0.00 0.00 0.00 0.00 0.00 0.00 0.00 0.00 0.00 0.00 0.00 0.00 0.00 0.00 0.00 0.00 0.00 0.00 0.00 0.00 0.00 0.00 0.00 0.00 0.00 0.00 0.00 0.00 0.00 0.02 0.04
0.00 0.00 0.00 0.00 0.00 0.00 0.00 0.00 0.00 0.00 0.00 0.00 0.00 0.00 0.00 0.00 0.00 0.00 0.00 0.00 0.00 0.00 0.00 0.00 0.00 0.00 0.00 0.00 0.00 0.00 0.01 0.02
0.00 0.00 0.00 0.00 0.00 0.00 0.00 0.00 0.00 0.00 0.02 0.01 0.00 0.00 0.00 0.00 0.00 0.00 0.00 0.00 0.00 0.00 0.00 0.00 0.00 0.00 0.00 0.00 0.00 0.01 0.01 0.00
0.00 0.00 0.00 0.00 0.00 0.00 0.00 0.00 0.00 0.01 0.02 0.03 0.00 0.00 0.00 0.00 0.00 0.00 0.00 0.00 0.00 0.00 0.00 0.00 0.00 0.00 0.00 0.00 0.00 0.02 0.01 0.00
0.00 0.00 0.00 0.00 0.00 0.00 0.00 0.00 0.00 0.00 0.00 0.01 0.00 0.00 0.00 0.00 0.00 0.00 0.00 0.00 0.00 0.00 0.00 0.00 0.00 0.00 0.00 0.00 0.03 0.03 0.02 0.02
0.00 0.00 0.00 0.00 0.00 0.00 0.00 0.00 0.00 0.00 0.00 0.00 0.01 0.00 0.00 0.00 0.00 0.00 0.00 0.00 0.00 0.00 0.00 0.00 0.00 0.00 0.07 0.06 0.04 0.06 0.08 0.06
0.00 0.00 0.00 0.00 0.00 0.00 0.00 0.00 0.00 0.00 0.00 0.03 0.00 0.00 0.00 0.00 0.01 0.00 0.00 0.00 0.00 0.00 0.00 0.00 0.00 0.00 0.04 0.01 0.05 0.10 0.04 0.06
0.00 0.00 0.00 0.00 0.00 0.00 0.00 0.00 0.00 0.01 0.00 0.03 0.05 0.01 0.00 0.03 0.00 0.00 0.00 0.00 0.00 0.00 0.00 0.00 0.00 0.00 0.00 0.02 0.06 0.07 0.09 0.18
0.00 0.00 0.00 0.00 0.00 0.00 0.00 0.00 0.00 0.00 0.00 0.00 0.00 0.06 0.02 0.11 0.02 0.01 0.02 0.05 0.05 0.04 0.02 0.01 0.01 0.00 0.01 0.02 0.03 0.09 0.21 0.24
0.00 0.00 0.01 0.01 0.00 0.00 0.00 0.00 0.00 0.00 0.00 0.00 0.01 0.12 0.16 0.12 0.06 0.04 0.09 0.11 0.13 0.12 0.06 0.06 0.08 0.05 0.10 0.10 0.10 0.15 0.18 0.24
0.04 0.03 0.02 0.02 0.01 0.00 0.00 0.00 0.00 0.00 0.00 0.02 0.10 0.19 0.19 0.07 0.03 0.04 0.18 0.14 0.15 0.13 0.05 0.06 0.13 0.17 0.18 0.15 0.16 0.18 0.20 0.19
0.12 0.15 0.06 0.01 0.00 0.00 0.00 0.00 0.00 0.00 0.00 0.04 0.05 0.02 0.03 0.02 0.02 0.10 0.20 0.25 0.19 0.23 0.29 0.27 0.26 0.28 0.31 0.22 0.22 0.31 0.27 0.29
0.25 0.19 0.14 0.02 0.00 0.00 0.00 0.00 0.00 0.00 0.00 0.02 0.11 0.16 0.16 0.11 0.11 0.17 0.20 0.20 0.24 0.27 0.30 0.26 0.23 0.22 0.23 0.30 0.40 0.41 0.42 0.41
0.41 0.34 0.25 0.08 0.00 0.00 0.00 0.00 0.01 0.01 0.01 0.01 0.02 0.13 0.21 0.19 0.15 0.21 0.22 0.21 0.23 0.31 0.31 0.38 0.34 0.25 0.23 0.39 0.43 0.46 0.56 0.54
0.50 0.38 0.26 0.11 0.02 0.00 0.01 0.01 0.01 0.01 0.00 0.00 0.01 0.06 0.15 0.16 0.19 0.21 0.18 0.16 0.19 0.23 0.32 0.31 0.34 0.24 0.24 0.32 0.33 0.28 0.27 0.47
0.71 0.50 0.35 0.16 0.04 0.03 0.03 0.03 0.02 0.01 0.01 0.01 0.02 0.07 0.11 0.15 0.17 0.15 0.19 0.23 0.19 0.16 0.21 0.25 0.31 0.26 0.25 0.25 0.28 0.27 0.17 0.16

GFSFLT1_prec_precacc24_270.txt.gz
Total_Precipitation_Accumulation
0.00 0.00 0.00 0.00 0.00 0.00 0.00 0.01 0.01 0.02 0.03 0.00 0.00 0.00 0.00 0.00 0.00 0.00 0.00 0.00 0.00 0.00 0.00 0.00 0.00 0.00 0.00 0.00 0.00 0.00 0.00 0.00
0.00 0.00 0.00 0.00 0.00 0.00 0.00 0.00 0.00 0.01 0.03 0.00 0.00 0.00 0.00 0.00 0.00 0.00 0.00 0.00 0.00 0.00 0.00 0.00 0.00 0.00 0.00 0.00 0.00 0.00 0.00 0.00
0.00 0.00 0.00 0.00 0.00 0.00 0.00 0.00 0.00 0.00 0.00 0.01 0.00 0.00 0.00 0.00 0.00 0.00 0.00 0.00 0.00 0.00 0.00 0.00 0.00 0.00 0.00 0.00 0.00 0.00 0.00 0.00
0.00 0.00 0.00 0.00 0.00 0.00 0.00 0.01 0.01 0.00 0.01 0.04 0.04 0.02 0.00 0.00 0.00 0.00 0.00 0.00 0.00 0.00 0.00 0.00 0.00 0.00 0.00 0.00 0.00 0.00 0.00 0.00
0.00 0.00 0.00 0.00 0.00 0.00 0.00 0.02 0.11 0.07 0.06 0.03 0.02 0.00 0.00 0.00 0.00 0.00 0.00 0.00 0.00 0.00 0.00 0.00 0.00 0.00 0.00 0.00 0.00 0.00 0.00 0.00
0.00 0.00 0.00 0.00 0.00 0.00 0.00 0.01 0.15 0.20 0.24 0.07 0.04 0.01 0.01 0.00 0.00 0.00 0.00 0.00 0.00 0.00 0.00 0.00 0.00 0.00 0.00 0.00 0.00 0.00 0.00 0.00
0.00 0.00 0.00 0.00 0.00 0.00 0.00 0.00 0.05 0.19 0.33 0.31 0.11 0.05 0.03 0.01 0.00 0.00 0.00 0.00 0.00 0.00 0.00 0.00 0.00 0.00 0.00 0.00 0.00 0.00 0.00 0.00
0.00 0.00 0.00 0.00 0.00 0.00 0.00 0.00 0.06 0.19 0.25 0.31 0.26 0.13 0.10 0.04 0.02 0.02 0.01 0.00 0.00 0.00 0.00 0.00 0.00 0.00 0.00 0.00 0.00 0.00 0.00 0.00
0.00 0.00 0.00 0.00 0.00 0.00 0.00 0.00 0.00 0.10 0.11 0.13 0.19 0.27 0.15 0.12 0.06 0.04 0.01 0.00 0.00 0.00 0.00 0.00 0.00 0.00 0.00 0.00 0.00 0.00 0.00 0.00
0.00 0.00 0.00 0.00 0.00 0.00 0.00 0.00 0.00 0.05 0.06 0.09 0.11 0.15 0.15 0.05 0.05 0.05 0.02 0.00 0.00 0.00 0.00 0.00 0.00 0.00 0.00 0.00 0.00 0.00 0.00 0.01
0.00 0.00 0.00 0.00 0.00 0.00 0.00 0.00 0.01 0.14 0.29 0.29 0.28 0.33 0.28 0.25 0.18 0.15 0.08 0.02 0.00 0.00 0.00 0.00 0.00 0.00 0.00 0.00 0.00 0.00 0.01 0.08
0.00 0.00 0.00 0.00 0.00 0.00 0.00 0.00 0.00 0.04 0.28 0.63 0.66 0.49 0.45 0.43 0.48 0.31 0.23 0.14 0.06 0.00 0.00 0.00 0.00 0.00 0.00 0.00 0.00 0.00 0.06 0.14
0.00 0.00 0.01 0.01 0.00 0.00 0.00 0.00 0.00 0.00 0.06 0.53 0.92 0.84 0.72 0.67 0.61 0.49 0.40 0.27 0.18 0.05 0.01 0.01 0.00 0.00 0.00 0.00 0.00 0.01 0.06 0.15
0.04 0.03 0.02 0.02 0.01 0.00 0.00 0.00 0.00 0.00 0.02 0.25 0.62 0.58 0.64 0.61 0.61 0.69 0.80 0.65 0.25 0.16 0.08 0.03 0.02 0.03 0.01 0.00 0.00 0.01 0.04 0.10
0.12 0.16 0.14 0.07 0.02 0.00 0.00 0.00 0.00 0.00 0.00 0.10 0.33 0.52 0.45 0.34 0.35 0.34 0.45 0.59 0.61 0.29 0.17 0.08 0.07 0.10 0.10 0.06 0.07 0.16 0.16 0.23
0.26 0.25 0.32 0.19 0.09 0.03 0.01 0.00 0.00 0.00 0.00 0.02 0.15 0.31 0.38 0.36 0.35 0.41 0.47 0.53 0.59 0.56 0.48 0.30 0.18 0.16 0.09 0.13 0.27 0.29 0.34 0.38
0.43 0.37 0.33 0.24 0.11 0.05 0.02 0.01 0.00 0.00 0.01 0.01 0.03 0.14 0.22 0.35 0.38 0.34 0.46 0.54 0.62 0.72 0.72 0.69 0.41 0.28 0.24 0.32 0.35 0.37 0.50 0.53
0.50 0.39 0.30 0.18 0.06 0.03 0.02 0.01 0.01 0.00 0.00 0.00 0.01 0.03 0.13 0.20 0.42 0.57 0.42 0.28 0.31 0.38 0.49 0.83 1.15 0.91 0.45 0.37 0.31 0.29 0.27 0.46
0.71 0.50 0.36 0.18 0.05 0.04 0.03 0.03 0.02 0.01 0.01 0.01 0.00 0.02 0.06 0.16 0.28 0.34 0.50 0.56 0.46 0.40 0.35 0.36 0.57 0.81 0.67 0.41 0.33 0.32 0.21 0.17

GFSFLT1_prec_precacc24_276.txt.gz
Total_Precipitation_Accumulation
0.00 0.00 0.00 0.00 0.00 0.00 0.00 0.01 0.03 0.14 0.21 0.16 0.09 0.06 0.01 0.00 0.00 0.00 0.00 0.00 0.00 0.00 0.00 0.00 0.00 0.00 0.00 0.00 0.00 0.00 0.00 0.00
0.00 0.00 0.00 0.00 0.00 0.00 0.00 0.00 0.03 0.16 0.13 0.06 0.07 0.05 0.05 0.01 0.00 0.00 0.00 0.00 0.00 0.00 0.00 0.00 0.00 0.00 0.00 0.00 0.00 0.00 0.00 0.00
0.00 0.00 0.00 0.00 0.00 0.00 0.00 0.00 0.01 0.10 0.15 0.13 0.11 0.08 0.07 0.02 0.00 0.00 0.00 0.00 0.00 0.00 0.00 0.00 0.00 0.00 0.00 0.00 0.00 0.00 0.00 0.00
0.00 0.00 0.00 0.00 0.00 0.00 0.00 0.01 0.01 0.00 0.02 0.10 0.10 0.09 0.05 0.01 0.00 0.00 0.00 0.00 0.00 0.00 0.00 0.00 0.00 0.00 0.00 0.00 0.00 0.00 0.00 0.00
0.00 0.00 0.00 0.00 0.00 0.00 0.00 0.02 0.11 0.07 0.07 0.04 0.04 0.02 0.01 0.01 0.02 0.02 0.00 0.00 0.00 0.00 0.00 0.00 0.00 0.00 0.00 0.00 0.00 0.00 0.00 0.00
0.00 0.00 0.00 0.00 0.00 0.00 0.00 0.01 0.15 0.20 0.25 0.09 0.08 0.04 0.02 0.04 0.07 0.06 0.02 0.01 0.02 0.00 0.00 0.00 0.00 0.00 0.00 0.00 0.00 0.00 0.00 0.00
0.00 0.00 0.00 0.00 0.00 0.00 0.00 0.00 0.05 0.19 0.33 0.33 0.14 0.08 0.08 0.04 0.02 0.03 0.04 0.05 0.04 0.03 0.01 0.00 0.00 0.00 0.00 0.00 0.00 0.00 0.00 0.00
0.00 0.00 0.00 0.00 0.00 0.00 0.00 0.00 0.06 0.19 0.25 0.31 0.29 0.15 0.18 0.11 0.05 0.05 0.03 0.05 0.04 0.03 0.05 0.02 0.02 0.00 0.00 0.00 0.00 0.00 0.00 0.00
0.00 0.00 0.00 0.00 0.00 0.00 0.00 0.00 0.00 0.10 0.11 0.13 0.19 0.27 0.16 0.19 0.12 0.07 0.04 0.01 0.03 0.11 0.09 0.04 0.01 0.01 0.00 0.00 0.00 0.00 0.00 0.00
0.00 0.00 0.00 0.00 0.00 0.00 0.00 0.00 0.00 0.05 0.06 0.09 0.11 0.15 0.15 0.06 0.09 0.10 0.06 0.05 0.01 0.09 0.08 0.09 0.07 0.02 0.00 0.00 0.00 0.00 0.00 0.00
0.00 0.00 0.00 0.00 0.00 0.00 0.00 0.00 0.01 0.14 0.29 0.29 0.28 0.33 0.28 0.27 0.23 0.26 0.18 0.13 0.16 0.09 0.06 0.07 0.16 0.15 0.07 0.03 0.01 0.01 0.00 0.00
0.00 0.00 0.00 0.00 0.00 0.00 0.00 0.00 0.00 0.04 0.28 0.63 0.66 0.49 0.45 0.43 0.51 0.40 0.41 0.33 0.33 0.31 0.19 0.09 0.12 0.23 0.24 0.13 0.05 0.04 0.02 0.00
0.00 0.00 0.01 0.01 0.00 0.00 0.00 0.00 0.00 0.00 0.06 0.53 0.92 0.84 0.72 0.67 0.61 0.49 0.46 0.44 0.44 0.35 0.33 0.30 0.15 0.12 0.17 0.23 0.15 0.08 0.03 0.00
0.04 0.03 0.02 0.02 0.01 0.00 0.00 0.00 0.00 0.00 0.02 0.25 0.62 0.58 0.64 0.61 0.61 0.69 0.82 0.90 0.47 0.34 0.39 0.36 0.23 0.22 0.17 0.11 0.19 0.20 0.14 0.05
0.12 0.16 0.14 0.07 0.02 0.00 0.00 0.00 0.00 0.00 0.00 0.10 0.33 0.52 0.45 0.34 0.35 0.34 0.45 0.62 0.85 0.59 0.31 0.32 0.43 0.38 0.27 0.30 0.33 0.26 0.13 0.10
0.26 0.25 0.32 0.19 0.09 0.03 0.01 0.00 0.00 0.00 0.00 0.02 0.15 0.31 0.38 0.36 0.35 0.41 0.47 0.52 0.56 0.62 0.74 0.55 0.30 0.43 0.51 0.52 0.56 0.55 0.44 0.33
0.43 0.37 0.33 0.24 0.11 0.05 0.02 0.00 0.00 0.00 0.01 0.01 0.03 0.14 0.22 0.34 0.38 0.32 0.42 0.50 0.57 0.68 0.68 0.75 0.55 0.41 0.36 0.41 0.51 0.42 0.39 0.33
0.50 0.39 0.30 0.18 0.06 0.03 0.01 0.01 0.00 0.00 0.00 0.00 0.01 0.03 0.11 0.19 0.39 0.54 0.39 0.25 0.28 0.35 0.45 0.82 1.31 1.27 0.79 0.53 0.50 0.50 0.36 0.24
0.71 0.50 0.36 0.18 0.05 0.04 0.03 0.01 0.01 0.01 0.01 0.01 0.00 0.00 0.04 0.15 0.26 0.32 0.48 0.58 0.50 0.38 0.30 0.31 0.52 1.04 1.63 1.60 1.19 0.74 0.56 0.54

GFSFLT1_prec_precacc24_279.txt.gz
Total_Precipitation_Accumulation
0.00 0.00 0.00 0.00 0.00 0.00 0.00 0.01 0.04 0.16 0.24 0.22 0.20 0.14 0.03 0.01 0.00 0.00 0.00 0.00 0.00 0.00 0.00 0.00 0.00 0.00 0.00 0.00 0.00 0.00 0.00 0.00
0.00 0.00 0.00 0.00 0.00 0.00 0.00 0.00 0.04 0.17 0.18 0.11 0.10 0.06 0.17 0.07 0.00 0.00 0.00 0.00 0.00 0.00 0.00 0.00 0.00 0.00 0.00 0.00 0.00 0.00 0.00 0.00
0.00 0.00 0.00 0.00 0.00 0.00 0.00 0.00 0.01 0.10 0.16 0.15 0.15 0.13 0.16 0.18 0.06 0.01 0.00 0.00 0.00 0.00 0.00 0.00 0.00 0.00 0.00 0.00 0.00 0.00 0.00 0.00
0.00 0.00 0.00 0.00 0.00 0.00 0.00 0.01 0.01 0.00 0.03 0.11 0.12 0.16 0.12 0.09 0.05 0.02 0.00 0.00 0.00 0.00 0.00 0.00 0.00 0.00 0.00 0.00 0.00 0.00 0.00 0.00
0.00 0.00 0.00 0.00 0.00 0.00 0.00 0.02 0.11 0.07 0.07 0.05 0.06 0.08 0.07 0.06 0.10 0.19 0.07 0.00 0.00 0.00 0.00 0.00 0.00 0.00 0.00 0.00 0.00 0.00 0.00 0.00
0.00 0.00 0.00 0.00 0.00 0.00 0.00 0.01 0.15 0.20 0.25 0.09 0.08 0.04 0.04 0.09 0.14 0.18 0.22 0.08 0.02 0.00 0.00 0.00 0.00 0.00 0.00 0.00 0.00 0.00 0.00 0.00
0.00 0.00 0.00 0.00 0.00 0.00 0.00 0.00 0.05 0.19 0.33 0.33 0.14 0.08 0.08 0.06 0.08 0.14 0.13 0.28 0.26 0.13 0.06 0.02 0.00 0.00 0.00 0.00 0.00 0.00 0.00 0.00
0.00 0.00 0.00 0.00 0.00 0.00 0.00 0.00 0.06 0.19 0.25 0.31 0.29 0.15 0.18 0.11 0.06 0.08 0.07 0.14 0.22 0.18 0.18 0.16 0.08 0.03 0.01 0.00 0.00 0.00 0.00 0.00
0.00 0.00 0.00 0.00 0.00 0.00 0.00 0.00 0.00 0.10 0.11 0.13 0.19 0.27 0.16 0.19 0.12 0.07 0.04 0.03 0.09 0.21 0.20 0.15 0.10 0.13 0.08 0.05 0.02 0.00 0.00 0.00
0.00 0.00 0.00 0.00 0.00 0.00 0.00 0.00 0.00 0.05 0.06 0.09 0.11 0.15 0.15 0.06 0.09 0.10 0.06 0.05 0.02 0.11 0.12 0.21 0.21 0.14 0.14 0.10 0.06 0.06 0.03 0.00
0.00 0.00 0.00 0.00 0.00 0.00 0.00 0.00 0.01 0.14 0.29 0.29 0.28 0.33 0.28 0.27 0.23 0.26 0.18 0.13 0.16 0.10 0.09 0.11 0.22 0.25 0.21 0.16 0.07 0.07 0.06 0.02
0.00 0.00 0.00 0.00 0.00 0.00 0.00 0.00 0.00 0.04 0.28 0.63 0.66 0.49 0.45 0.43 0.51 0.40 0.41 0.33 0.33 0.31 0.20 0.13 0.16 0.27 0.30 0.24 0.20 0.15 0.08 0.04
0.00 0.00 0.01 0.01 0.00 0.00 0.00 0.00 0.00 0.00 0.06 0.53 0.92 0.84 0.72 0.67 0.61 0.49 0.46 0.44 0.44 0.35 0.33 0.30 0.18 0.18 0.25 0.32 0.31 0.27 0.17 0.09
0.04 0.03 0.02 0.02 0.01 0.00 0.00 0.00 0.00 0.00 0.02 0.25 0.62 0.58 0.64 0.61 0.61 0.69 0.82 0.90 0.47 0.34 0.39 0.36 0.23 0.23 0.24 0.22 0.31 0.38 0.36 0.31
0.12 0.16 0.14 0.07 0.02 0.00 0.00 0.00 0.00 0.00 0.00 0.10 0.33 0.52 0.45 0.34 0.35 0.34 0.45 0.62 0.85 0.59 0.31 0.32 0.43 0.38 0.28 0.32 0.37 0.32 0.22 0.23
0.26 0.25 0.32 0.19 0.09 0.03 0.01 0.00 0.00 0.00 0.00 0.02 0.15 0.31 0.38 0.36 0.35 0.41 0.47 0.52 0.56 0.62 0.74 0.55 0.30 0.43 0.53 0.52 0.50 0.54 0.50 0.41
0.43 0.37 0.33 0.24 0.11 0.05 0.02 0.00 0.00 0.00 0.01 0.01 0.03 0.14 0.22 0.34 0.38 0.32 0.42 0.50 0.57 0.68 0.68 0.75 0.55 0.42 0.40 0.33 0.40 0.36 0.38 0.35
0.50 0.39 0.30 0.18 0.06 0.03 0.01 0.01 0.00 0.00 0.00 0.00 0.01 0.03 0.11 0.19 0.39 0.54 0.39 0.25 0.28 0.35 0.45 0.82 1.32 1.28 0.78 0.43 0.37 0.42 0.32 0.23
0.69 0.50 0.36 0.18 0.05 0.04 0.03 0.01 0.01 0.01 0.01 0.01 0.00 0.00 0.04 0.15 0.26 0.32 0.48 0.58 0.50 0.38 0.30 0.31 0.53 1.07 1.67 1.57 1.11 0.69 0.56 0.53

GFSFLT1_prec_precacc24_285.txt.gz
Total_Precipitation_Accumulation
0.00 0.00 0.00 0.00 0.00 0.00 0.00 0.01 0.04 0.16 0.24 0.24 0.24 0.24 0.17 0.30 0.33 0.25 0.13 0.02 0.00 0.00 0.00 0.00 0.00 0.00 0.00 0.00 0.00 0.00 0.00 0.00
0.00 0.00 0.00 0.00 0.00 0.00 0.00 0.00 0.04 0.17 0.18 0.12 0.13 0.10 0.22 0.16 0.12 0.30 0.54 0.32 0.07 0.03 0.00 0.00 0.00 0.00 0.00 0.00 0.00 0.00 0.00 0.00
0.00 0.00 0.00 0.00 0.00 0.00 0.00 0.00 0.01 0.10 0.16 0.16 0.16 0.16 0.21 0.26 0.20 0.18 0.23 0.32 0.11 0.07 0.02 0.02 0.00 0.00 0.00 0.00 0.00 0.00 0.00 0.00
0.00 0.00 0.00 0.00 0.00 0.00 0.00 0.01 0.01 0.00 0.03 0.11 0.12 0.17 0.16 0.15 0.17 0.17 0.22 0.26 0.45 0.32 0.04 0.02 0.02 0.01 0.00 0.00 0.00 0.00 0.00 0.00
0.00 0.00 0.00 0.00 0.00 0.00 0.00 0.02 0.11 0.07 0.07 0.05 0.06 0.08 0.09 0.11 0.17 0.26 0.26 0.26 0.35 0.56 0.38 0.09 0.05 0.05 0.01 0.00 0.00 0.00 0.00 0.00
0.00 0.00 0.00 0.00 0.00 0.00 0.00 0.01 0.15 0.20 0.24 0.09 0.08 0.04 0.05 0.11 0.19 0.24 0.34 0.55 0.59 0.62 0.72 0.54 0.25 0.14 0.08 0.03 0.00 0.00 0.00 0.00
0.00 0.00 0.00 0.00 0.00 0.00 0.00 0.00 0.05 0.18 0.32 0.33 0.14 0.08 0.08 0.06 0.08 0.16 0.18 0.51 1.04 1.26 0.95 0.86 0.64 0.34 0.13 0.07 0.02 0.01 0.00 0.00
0.00 0.00 0.00 0.00 0.00 0.00 0.00 0.00 0.06 0.19 0.25 0.31 0.29 0.15 0.18 0.11 0.06 0.08 0.08 0.22 0.41 0.64 1.13 1.05 1.07 1.27 0.95 0.36 0.21 0.07 0.03 0.01
0.00 0.00 0.00 0.00 0.00 0.00 0.00 0.00 0.00 0.10 0.11 0.13 0.19 0.27 0.16 0.19 0.12 0.07 0.04 0.03 0.14 0.38 0.49 0.63 0.56 0.60 0.86 0.90 0.77 0.44 0.14 0.08
0.00 0.00 0.00 0.00 0.00 0.00 0.00 0.00 0.00 0.05 0.06 0.09 0.11 0.15 0.15 0.06 0.09 0.10 0.06 0.05 0.02 0.12 0.18 0.36 0.45 0.43 0.48 0.59 0.70 0.77 0.29 0.08
0.00 0.00 0.00 0.00 0.00 0.00 0.00 0.00 0.01 0.14 0.29 0.29 0.28 0.33 0.28 0.27 0.23 0.26 0.18 0.13 0.16 0.10 0.09 0.14 0.31 0.43 0.45 0.46 0.33 0.36 0.45 0.14
0.00 0.00 0.00 0.00 0.00 0.00 0.00 0.00 0.00 0.04 0.28 0.63 0.66 0.49 0.45 0.43 0.51 0.40 0.41 0.33 0.33 0.31 0.20 0.13 0.16 0.30 0.44 0.53 0.54 0.50 0.37 0.26
0.00 0.00 0.01 0.01 0.00 0.00 0.00 0.00 0.00 0.00 0.06 0.53 0.92 0.84 0.72 0.67 0.61 0.49 0.46 0.44 0.44 0.35 0.34 0.30 0.18 0.18 0.26 0.37 0.45 0.52 0.65 0.72
0.04 0.03 0.02 0.02 0.01 0.00 0.00 0.00 0.00 0.00 0.02 0.25 0.62 0.58 0.64 0.61 0.61 0.69 0.82 0.90 0.47 0.34 0.39 0.36 0.23 0.23 0.24 0.22 0.33 0.43 0.48 0.50
0.11 0.16 0.14 0.07 0.02 0.00 0.00 0.00 0.00 0.00 0.00 0.10 0.33 0.52 0.45 0.34 0.35 0.34 0.45 0.62 0.85 0.59 0.31 0.32 0.43 0.39 0.28 0.32 0.36 0.30 0.25 0.31
0.20 0.23 0.31 0.19 0.09 0.03 0.01 0.00 0.00 0.00 0.00 0.02 0.15 0.31 0.38 0.36 0.35 0.41 0.47 0.52 0.56 0.62 0.74 0.55 0.30 0.43 0.53 0.52 0.47 0.50 0.48 0.38
0.28 0.30 0.31 0.24 0.11 0.05 0.02 0.00 0.00 0.00 0.01 0.01 0.03 0.14 0.22 0.34 0.38 0.32 0.42 0.50 0.57 0.68 0.67 0.74 0.54 0.42 0.40 0.33 0.37 0.33 0.31 0.31
0.19 0.27 0.26 0.18 0.06 0.03 0.01 0.00 0.00 0.00 0.00 0.00 0.01 0.03 0.10 0.18 0.39 0.54 0.39 0.25 0.27 0.35 0.45 0.82 1.32 1.28 0.78 0.42 0.36 0.40 0.31 0.22
0.06 0.18 0.20 0.13 0.05 0.04 0.03 0.01 0.00 0.00 0.01 0.01 0.00 0.00 0.04 0.15 0.26 0.31 0.48 0.58 0.49 0.37 0.29 0.31 0.52 1.07 1.66 1.57 1.10 0.66 0.56 0.53